Tracking 35331 objects as of 15-Sep-2026
HD Live streaming from Space Station
objects crossing your sky now

ONEWEB-0436

Track ONEWEB-0436 now!
10-day predictions
ONEWEB-0436 is classified as:


NORAD ID: 51633
Int'l Code: 2022-012M
Launch date: February 10, 2022
Source: United Kingdom (UK)
Launch site: FRENCH GUIANA (FRGUI)
Your satellite tracking list
Your tracking list is empty




NASA's NSSDC Master Catalog

Two Line Element Set (TLE):
1 51633U 22012M   26258.50032829  .00000116  00000-0  26688-3 0  9998
2 51633  87.9213 347.9174 0002039  94.5830 265.5535 13.17650231225579
Source of the keplerian elements: AFSPC